Location: Toronto
(43.6672°N, 79.4170°W)
Time: 09:55:30
(UTC-04:00)

Daily predictions for brighter satellites

Satellite Brightness Start Highest point End
(mag) Time Altitude Azimuth Time Altitude Azimuth Time Altitude Azimuth
Helios 1B rocket 4.0 20:04:57 10° NE 20:07:31 16° E 20:10:05 10° SE
Meteor 1-4 Rocket 3.1 20:06:00 10° SSE 20:09:07 32° E 20:12:17 10° NNE
In-Cosmos 22 4.0 20:04:36 10° N 20:09:56 73° E 20:15:12 10° SSE
Timation 2 Rocket 4.3 20:08:03 10° NNW 20:14:10 48° NE 20:20:02 10° SE
Spot 2 Rocket 3.7 20:09:49 10° SE 20:14:45 53° ENE 20:19:45 10° N
Lacrosse 5 rocket 2.0 20:11:07 10° NW 20:14:52 38° NNE 20:18:25 10° ESE
Lacrosse 4 Rocket 3.9 20:11:45 10° WSW 20:15:02 23° NW 20:18:20 10° N
Cosmos 1844 Rocket 4.5 20:11:49 10° WSW 20:16:59 36° NW 20:22:10 10° N
Cosmos 1076 Rocket 3.7 20:15:13 10° N 20:19:21 48° ENE 20:23:27 10° SSE
Cosmos 2344 3.9 20:14:04 10° SW 20:21:44 79° NW 20:30:34 10° NE
Cosmos 1544 3.0 20:18:16 10° S 20:21:52 63° E 20:25:32 10° NNE
H-2A R/B (2) 3.9 20:22:29 10° S 20:23:14 10° SSE 20:24:05 10° SSE
Cosmos 1867 3.6 20:17:59 10° SSW 20:23:19 58° ESE 20:28:41 10° NE
Okean 3 Rocket 3.5 20:19:12 10° N 20:23:38 86° E 20:28:03 10° S
Cosmos 1934 Rocket 4.3 20:17:58 10° SSW 20:24:04 74° W 20:30:09 10° N
CZ-2D R/B 3.6 20:21:14 10° SSE 20:24:56 47° ENE 20:28:42 10° N
FENGYUN 3A 3.8 20:19:36 10° SSE 20:25:00 85° WSW 20:30:26 10° NNW
Cosmos 1833 Rocket 2.8 20:22:32 10° NNW 20:28:07 62° ENE 20:33:42 10° SE
Cosmos 1805 3.2 20:24:24 10° S 20:28:17 77° E 20:32:12 10° N
Cosmos 482 Debris 3.9 20:28:47 10° NW 20:30:24 25° NNE 20:31:15 17° ENE
Helios 1A 3.6 20:27:04 10° SE 20:30:54 37° ENE 20:34:46 10° N
ALOS 2.7 20:26:20 10° S 20:30:59 68° WSW 20:35:39 10° NNW
Meteor 1-21 Rocket 4.3 20:25:22 10° N 20:31:11 65° ENE 20:37:02 10° SSE
Abrixas 4.2 20:30:39 10° W 20:33:04 25° SW 20:35:28 10° SSE
Envisat 3.9 20:28:40 10° SE 20:33:04 31° ENE 20:37:29 10° N
Cosmos 2278 Rocket 3.1 20:33:46 10° SW 20:39:19 54° WNW 20:44:54 10° NNE
ATLAS 5 CENTAUR R/B 1.9 20:37:07 10° SSW 20:41:40 52° ESE 20:46:36 10° NE
SeaSat 1 2.8 20:38:25 10° SSE 20:43:19 66° WSW 20:48:15 10° NNW
Cosmos 1125 Rocket 3.5 20:38:08 10° SSW 20:43:20 88° ESE 20:48:36 10° NNE
Geosat 4.3 20:39:50 10° NE 20:44:38 43° ESE 20:49:24 10° S
Cosmos 1733 3.6 20:41:09 10° SSE 20:44:46 40° E 20:48:26 10° NNE
Cosmos 1048 Rocket 4.0 20:39:44 10° NNW 20:44:53 87° WSW 20:50:01 10° SSE
Spot 1 4.5 20:40:48 10° SSE 20:45:26 58° ENE 20:50:20 10° N
ERS-1 Rocket 4.2 20:43:15 16° E 20:45:37 23° ENE 20:49:30 10° NNE
Cosmos 1766 Rocket 3.5 20:41:35 10° N 20:46:06 70° E 20:50:32 10° SSE
Cosmos 1470 3.0 20:42:35 10° SSE 20:46:23 45° E 20:50:11 10° NNE
Cosmos-2242 3.1 20:44:56 10° S 20:49:04 53° E 20:53:13 10° NNE
GP-B 3.1 20:48:07 10° SSE 20:52:30 65° E 20:56:54 10° N
Cosmos 1356 Rocket 4.4 20:49:39 10° NNE 20:53:09 26° ENE 20:54:14 23° E
Cosmos 2016 Rocket 4.4 20:51:08 10° SSE 20:56:50 40° E 21:02:30 10° NNE
Cosmos 2297 3.8 20:51:47 10° SSW 20:57:31 81° WNW 21:03:18 10° NNE
USA 186 0.8 20:58:06 34° S 20:58:53 81° WSW 21:01:06 10° NNW
BREEZE-M DEB (TANK) 3.4 20:55:51 10° WSW 20:58:54 87° NNW 21:08:05 10° ENE
Cosmos 1340 Rocket 2.8 20:55:37 10° N 20:59:37 62° ENE 21:02:28 18° SSE
H-2A R/B 3.9 20:56:01 10° S 20:59:46 45° W 21:03:35 10° NNW
Resurs 01 Rocket 2.6 20:57:39 10° S 21:01:54 49° W 21:06:14 10° NNW
CZ-4B DEB 2.7 21:01:12 33° SE 21:02:20 54° ENE 21:05:23 10° N
Cosmos 2082 Rocket 2.7 21:02:44 10° NNW 21:08:19 59° WSW 21:13:51 10° S
ISS -4.0 21:08:27 10° SW 21:11:42 82° SSE 21:12:44 40° ENE
Meteor 1-29 2.8 21:09:46 10° NNE 21:13:15 68° ESE 21:16:42 10° S
ARGOS 4.4 21:13:46 21° ENE 21:14:36 22° ENE 21:18:35 10° NNE
Cosmos 2100 Rocket 4.0 21:09:16 10° S 21:15:37 84° E 21:22:02 10° N
Cosmos 1743 Rocket 3.5 21:12:48 10° N 21:17:15 71° E 21:19:40 26° SSE
Cosmos 1500 Rocket 3.7 21:14:00 10° N 21:18:14 51° ENE 21:19:25 39° SE
Meteor 1-11 4.4 21:14:11 10° N 21:19:36 48° ENE 21:21:49 32° SE
SAR-Lupe-4 4.3 21:16:29 13° S 21:19:36 53° W 21:23:08 10° NNW
Meteor 1-16 Rocket 4.4 21:16:05 10° S 21:21:46 55° E 21:27:33 10° NNE
SL-14 R/B 3.3 21:18:36 10° N 21:22:24 52° E 21:22:48 49° ESE
CZ-3B DEB 3.8 21:15:34 10° W 21:23:56 37° NNW 21:28:07 10° NE
YAOGAN 6 3.3 21:24:20 38° ENE 21:24:20 38° ENE 21:27:35 10° N
Cosmos 2058 3.7 21:21:52 10° N 21:25:21 34° ENE 21:25:21 34° ENE
Cosmos 1271 Rocket 3.4 21:21:44 10° SSW 21:25:42 59° WNW 21:29:42 10° N
Cosmos 2251 Rocket 3.5 21:21:11 10° NNW 21:26:31 68° ENE 21:28:41 36° SE
Tsikada Rocket 4.2 21:20:52 10° N 21:26:52 48° ENE 21:29:09 34° SE
Cosmos 1328 3.6 21:25:38 10° N 21:29:37 75° E 21:30:24 55° SSE
Cosmos 1674 4.4 21:28:27 10° NNW 21:31:52 32° W 21:35:17 10° SSW
USA 215 3.4 21:28:35 10° ENE 21:34:52 48° SE 21:41:07 10° SSW
Lacrosse 5 3.9 21:32:59 10° WNW 21:37:10 25° NNW 21:41:22 10° NE
Cosmos 1802 Rocket 4.0 21:33:17 10° S 21:39:24 82° W 21:45:38 10° N
Cosmos 2151 2.8 21:37:41 10° N 21:41:56 68° E 21:42:00 68° E
Helios 1B rocket 3.5 21:39:07 10° N 21:43:04 45° WNW 21:46:59 10° SW
SPOT 5 3.6 21:42:54 40° ENE 21:43:14 41° ENE 21:48:11 10° N
Meteor 2-1 Rocket 4.4 21:43:32 47° ESE 21:44:12 50° E 21:49:39 10° NNE
Cosmos 1939 Rocket 3.3 21:42:56 37° SSW 21:44:23 64° W 21:48:32 10° NNW
Terra 4.0 21:52:12 14° NE 21:52:12 14° NE 21:53:31 10° NNE
Cosmos 1842 Rocket 3.8 21:50:28 26° SSW 21:52:54 69° W 21:57:18 10° N
Cosmos 389 Rocket 4.1 21:55:11 27° N 21:55:11 27° N 21:56:57 10° N
Lacrosse 5 rocket 2.6 21:50:35 10° WNW 21:53:59 29° SW 21:54:09 29° SW
Cosmos 1816 Rocket 4.4 21:49:53 10° N 21:56:04 66° E 21:57:23 53° SE
Cosmos 1626 3.9 21:53:12 10° N 21:54:52 23° NNE 21:54:52 23° NNE
Cosmos 494 Rocket 4.2 21:52:30 10° NNW 21:57:34 64° WSW 21:59:02 44° SSW
Cosmos 2369 Rocket 2.9 22:01:46 36° NE 22:01:46 36° NE 22:05:17 10° NNE
MetOp-B 4.0 22:02:47 69° ESE 22:03:08 71° ENE 22:08:29 10° N
Gblst 52 Del rocket 4.1 22:02:11 10° SW 22:07:37 66° S 22:07:37 66° S
USA 267 3.9 22:06:11 35° ENE 22:08:14 45° NNE 22:14:24 10° NW
USA 245 4.3 22:09:51 65° E 22:10:11 66° ENE 22:16:27 10° N
Cosmos 2233 Rocket 3.8 22:10:13 64° E 22:10:20 64° E 22:16:25 10° NNE
Envisat 4.4 22:08:43 17° SSW 22:11:59 34° W 22:16:37 10° NNW
NOAA 11 4.1 22:19:29 83° SSW 22:19:42 86° WSW 22:25:15 10° NNW
ERS-1 Rocket 3.7 22:23:16 44° SW 22:24:05 48° W 22:28:58 10° NNW
Cosmos 1943 Rocket 4.4 22:28:51 13° NE 22:28:51 13° NE 22:29:25 10° NE
ATLAS 5 CENTAUR R/B 3.9 22:22:31 10° W 22:26:39 27° NW 22:31:08 10° NNE
H-2A R/B 2.8 22:31:00 45° NNE 22:31:00 45° NNE 22:34:53 10° N
CZ-3 Stage 3 4.2 22:20:00 10° W 22:36:34 30° SW 22:37:49 29° SSW
Cosmos 2221 4.3 22:45:55 29° NNW 22:45:55 29° NNW 22:48:21 10° N
CZ-4C R/B 4.1 22:48:37 21° NE 22:48:37 21° NE 22:50:32 10° NE
H-2A R/B 4.4 22:57:07 18° N 22:57:07 18° N 22:58:16 10° N
ARGOS 3.9 22:55:16 50° WNW 22:55:16 50° WNW 22:59:42 10° NNW
MOS 1-B Rocket 4.5 23:01:31 74° SW 23:01:56 77° WSW 23:08:51 10° NNW
USA 215 3.7 23:11:35 10° NE 23:17:58 58° NNW 23:24:20 10° WSW
Lacrosse 5 4.2 23:18:16 10° NW 23:21:42 18° N 23:22:01 18° N
Terra 4.0 23:31:05 22° NNW 23:31:05 22° NNW 23:32:47 10° NNW
Cosmos 2297 Rocket 4.4 23:28:29 10° N 23:30:44 17° NNE 23:30:44 17° NNE
CZ-3B DEB 4.5 23:33:47 10° NW 23:35:01 13° NNW 23:35:01 13° NNW
Cosmos 2369 Rocket 4.0 23:43:23 25° WNW 23:44:10 26° NW 23:48:48 10° N
USA 267 4.2 23:53:31 40° WNW 23:53:31 40° WNW 23:57:35 10° NW
